Time,TemperatureF,DewpointF,PressureIn,WindDirection,WindDirectionDegrees,WindSpeedMPH,WindSpeedGustMPH,Humidity,HourlyPrecipIn,Conditions,Clouds,dailyrainin,SoftwareType,DateUTC
2013-11-03 00:05:00,44.4,42.0,29.91,WNW,282,3.0,6.0,91,0.01,,,0.01,weatherlink.com 1.10,2013-11-03 04:05:00,
2013-11-03 00:20:00,44.0,42.0,29.92,NW,316,2.0,4.0,92,0.01,,,0.01,weatherlink.com 1.10,2013-11-03 04:20:00,
2013-11-03 00:35:00,43.9,42.0,29.92,NW,312,0.0,5.0,92,0.01,,,0.01,weatherlink.com 1.10,2013-11-03 04:35:00,
2013-11-03 00:50:00,43.6,41.0,29.93,North,354,2.0,5.0,91,0.01,,,0.01,weatherlink.com 1.10,2013-11-03 04:50:00,
2013-11-03 01:05:00,42.7,40.0,29.94,NNW,335,0.0,5.0,90,0.00,,,0.01,weatherlink.com 1.10,2013-11-03 05:05:00,
2013-11-03 01:20:00,42.3,40.0,29.95,NNW,337,0.0,8.0,90,0.00,,,0.01,weatherlink.com 1.10,2013-11-03 05:20:00,
2013-11-03 01:35:00,42.5,40.0,29.95,NW,311,0.0,2.0,90,0.00,,,0.01,weatherlink.com 1.10,2013-11-03 05:35:00,
2013-11-03 01:50:00,42.6,40.0,29.96,NW,321,1.0,4.0,90,0.00,,,0.01,weatherlink.com 1.10,2013-11-03 05:50:00,
2013-11-03 01:05:00,42.2,39.0,29.97,NW,323,3.0,6.0,89,0.00,,,0.01,weatherlink.com 1.10,2013-11-03 06:05:00,
2013-11-03 01:20:00,41.6,38.0,29.98,NW,307,3.0,9.0,87,0.00,,,0.01,weatherlink.com 1.10,2013-11-03 06:20:00,
2013-11-03 01:35:00,41.3,37.0,29.98,North,353,1.0,6.0,86,0.00,,,0.01,weatherlink.com 1.10,2013-11-03 06:35:00,
2013-11-03 01:51:00,41.0,37.0,29.99,NNW,336,3.0,7.0,86,0.00,,,0.01,weatherlink.com 1.10,2013-11-03 06:51:00,
2013-11-03 02:05:00,40.9,37.0,30.00,WNW,297,0.0,8.0,86,0.00,,,0.01,weatherlink.com 1.10,2013-11-03 07:05:00,
2013-11-03 02:20:00,40.8,37.0,30.00,NW,315,0.0,3.0,86,0.00,,,0.01,weatherlink.com 1.10,2013-11-03 07:20:00,
2013-11-03 02:35:00,40.6,37.0,30.01,WSW,253,1.0,5.0,85,0.00,,,0.01,weatherlink.com 1.10,2013-11-03 07:35:00,
2013-11-03 02:51:00,40.3,36.0,30.02,NNW,335,0.0,4.0,84,0.00,,,0.01,weatherlink.com 1.10,2013-11-03 07:51:00,
2013-11-03 03:06:00,39.5,35.0,30.03,NW,311,0.0,3.0,83,0.00,,,0.01,weatherlink.com 1.10,2013-11-03 08:06:00,
2013-11-03 03:21:00,38.8,34.0,30.04,WNW,295,0.0,2.0,84,0.00,,,0.01,weatherlink.com 1.10,2013-11-03 08:21:00,
2013-11-03 03:36:00,38.6,35.0,30.05,WNW,291,2.0,5.0,85,0.00,,,0.01,weatherlink.com 1.10,2013-11-03 08:36:00,
2013-11-03 03:51:00,38.2,34.0,30.05,NW,314,1.0,4.0,85,0.00,,,0.01,weatherlink.com 1.10,2013-11-03 08:51:00,
2013-11-03 04:06:00,37.8,34.0,30.06,West,270,1.0,3.0,85,0.00,,,0.01,weatherlink.com 1.10,2013-11-03 09:06:00,
2013-11-03 04:21:00,37.3,34.0,30.08,NW,311,1.0,3.0,86,0.00,,,0.01,weatherlink.com 1.10,2013-11-03 09:21:00,
2013-11-03 04:36:00,36.8,33.0,30.09,NW,314,2.0,3.0,86,0.00,,,0.01,weatherlink.com 1.10,2013-11-03 09:36:00,
2013-11-03 04:51:00,36.9,33.0,30.09,NW,304,0.0,3.0,87,0.00,,,0.01,weatherlink.com 1.10,2013-11-03 09:51:00,
2013-11-03 05:06:00,37.4,34.0,30.10,NW,309,0.0,3.0,87,0.00,,,0.01,weatherlink.com 1.10,2013-11-03 10:06:00,
2013-11-03 05:21:00,37.3,34.0,30.11,NW,311,1.0,2.0,86,0.00,,,0.01,weatherlink.com 1.10,2013-11-03 10:21:00,
2013-11-03 05:36:00,36.6,33.0,30.11,WNW,300,1.0,1.0,87,0.00,,,0.01,weatherlink.com 1.10,2013-11-03 10:36:00,
2013-11-03 05:51:00,36.1,33.0,30.12,NW,309,0.0,2.0,87,0.00,,,0.01,weatherlink.com 1.10,2013-11-03 10:51:00,
2013-11-03 06:06:00,35.2,32.0,30.12,NW,308,0.0,1.0,88,0.00,,,0.01,weatherlink.com 1.10,2013-11-03 11:06:00,
2013-11-03 06:21:00,34.0,31.0,30.13,NW,307,0.0,0.0,89,0.00,,,0.01,weatherlink.com 1.10,2013-11-03 11:21:00,
2013-11-03 06:36:00,33.0,30.0,30.14,NW,309,0.0,0.0,90,0.00,,,0.01,weatherlink.com 1.10,2013-11-03 11:36:00,
2013-11-03 06:51:00,32.7,30.0,30.15,West,276,0.0,1.0,91,0.00,,,0.01,weatherlink.com 1.10,2013-11-03 11:51:00,
2013-11-03 07:06:00,32.5,31.0,30.16,West,277,0.0,0.0,92,0.00,,,0.01,weatherlink.com 1.10,2013-11-03 12:06:00,
2013-11-03 07:21:00,33.2,31.0,30.17,West,277,0.0,0.0,93,0.00,,,0.01,weatherlink.com 1.10,2013-11-03 12:21:00,
2013-11-03 07:37:00,35.1,34.0,30.19,WNW,284,1.0,2.0,94,0.00,,,0.01,weatherlink.com 1.10,2013-11-03 12:37:00,
2013-11-03 07:52:00,36.4,34.0,30.20,NNE,25,0.0,2.0,92,0.00,,,0.01,weatherlink.com 1.10,2013-11-03 12:52:00,
2013-11-03 08:07:00,37.1,34.0,30.20,WNW,302,1.0,3.0,89,0.00,,,0.01,weatherlink.com 1.10,2013-11-03 13:07:00,
2013-11-03 08:22:00,38.0,35.0,30.22,NW,315,0.0,3.0,88,0.00,,,0.01,weatherlink.com 1.10,2013-11-03 13:22:00,
2013-11-03 08:37:00,38.2,34.0,30.22,NE,47,2.0,4.0,85,0.00,,,0.01,weatherlink.com 1.10,2013-11-03 13:37:00,
2013-11-03 08:52:00,38.2,34.0,30.23,NNE,29,0.0,6.0,84,0.00,,,0.01,weatherlink.com 1.10,2013-11-03 13:52:00,
2013-11-03 09:07:00,38.4,34.0,30.24,East,79,1.0,4.0,83,0.00,,,0.01,weatherlink.com 1.10,2013-11-03 14:07:00,
2013-11-03 09:22:00,38.1,33.0,30.24,East,91,2.0,4.0,81,0.00,,,0.01,weatherlink.com 1.10,2013-11-03 14:22:00,
2013-11-03 09:37:00,38.7,33.0,30.24,ENE,64,2.0,4.0,81,0.00,,,0.01,weatherlink.com 1.10,2013-11-03 14:37:00,
2013-11-03 09:52:00,39.7,33.0,30.25,SSW,204,0.0,9.0,77,0.00,,,0.01,weatherlink.com 1.10,2013-11-03 14:52:00,
2013-11-03 10:07:00,39.8,33.0,30.26,WNW,289,1.0,5.0,77,0.00,,,0.01,weatherlink.com 1.10,2013-11-03 15:07:00,
2013-11-03 10:22:00,41.0,34.0,30.27,WSW,239,3.0,4.0,75,0.00,,,0.01,weatherlink.com 1.10,2013-11-03 15:22:00,
2013-11-03 10:37:00,41.0,33.0,30.27,NNE,28,4.0,5.0,74,0.00,,,0.01,weatherlink.com 1.10,2013-11-03 15:37:00,
2013-11-03 10:52:00,41.2,34.0,30.27,NNE,32,2.0,5.0,74,0.00,,,0.01,weatherlink.com 1.10,2013-11-03 15:52:00,
2013-11-03 11:07:00,41.5,34.0,30.27,West,276,1.0,7.0,75,0.00,,,0.01,weatherlink.com 1.10,2013-11-03 16:07:00,
2013-11-03 11:22:00,41.5,33.0,30.27,ENE,64,3.0,7.0,71,0.00,,,0.01,weatherlink.com 1.10,2013-11-03 16:22:00,
2013-11-03 11:37:00,41.7,33.0,30.27,East,89,0.0,7.0,70,0.00,,,0.01,weatherlink.com 1.10,2013-11-03 16:37:00,
2013-11-03 11:52:00,42.5,33.0,30.27,NW,321,1.0,7.0,69,0.00,,,0.01,weatherlink.com 1.10,2013-11-03 16:52:00,
2013-11-03 12:07:00,43.5,34.0,30.26,WNW,297,3.0,8.0,69,0.00,,,0.01,weatherlink.com 1.10,2013-11-03 17:07:00,
2013-11-03 12:22:00,43.8,33.0,30.26,ENE,76,3.0,9.0,66,0.00,,,0.01,weatherlink.com 1.10,2013-11-03 17:22:00,
2013-11-03 12:37:00,44.4,32.0,30.26,NW,304,1.0,6.0,63,0.00,,,0.01,weatherlink.com 1.10,2013-11-03 17:37:00,
2013-11-03 12:52:00,45.6,33.0,30.26,NE,44,2.0,4.0,62,0.00,,,0.01,weatherlink.com 1.10,2013-11-03 17:52:00,
2013-11-03 13:07:00,46.1,33.0,30.26,NE,44,3.0,7.0,61,0.00,,,0.01,weatherlink.com 1.10,2013-11-03 18:07:00,
2013-11-03 13:22:00,46.9,33.0,30.26,WNW,294,7.0,10.0,58,0.00,,,0.01,weatherlink.com 1.10,2013-11-03 18:22:00,
2013-11-03 13:37:00,47.7,34.0,30.26,NNW,341,1.0,7.0,59,0.00,,,0.01,weatherlink.com 1.10,2013-11-03 18:37:00,
2013-11-03 13:52:00,47.7,32.0,30.26,WNW,301,2.0,6.0,54,0.00,,,0.01,weatherlink.com 1.10,2013-11-03 18:52:00,
2013-11-03 14:07:00,47.8,33.0,30.26,West,266,2.0,7.0,58,0.00,,,0.01,weatherlink.com 1.10,2013-11-03 19:07:00,
2013-11-03 14:22:00,48.3,32.0,30.26,WNW,300,6.0,7.0,53,0.00,,,0.01,weatherlink.com 1.10,2013-11-03 19:22:00,
2013-11-03 14:37:00,48.4,31.0,30.26,WNW,301,3.0,8.0,52,0.00,,,0.01,weatherlink.com 1.10,2013-11-03 19:37:00,
2013-11-03 14:52:00,48.6,31.0,30.27,NE,41,4.0,9.0,51,0.00,,,0.01,weatherlink.com 1.10,2013-11-03 19:52:00,
2013-11-03 15:07:00,48.6,31.0,30.28,WNW,290,3.0,11.0,50,0.00,,,0.01,weatherlink.com 1.10,2013-11-03 20:07:00,
2013-11-03 15:22:00,48.5,30.0,30.28,WNW,303,4.0,7.0,50,0.00,,,0.01,weatherlink.com 1.10,2013-11-03 20:22:00,
2013-11-03 15:37:00,48.3,30.0,30.28,NNW,330,5.0,7.0,49,0.00,,,0.01,weatherlink.com 1.10,2013-11-03 20:37:00,
2013-11-03 15:52:00,47.8,29.0,30.28,North,9,2.0,9.0,49,0.00,,,0.01,weatherlink.com 1.10,2013-11-03 20:52:00,
2013-11-03 16:08:00,47.3,28.0,30.28,NW,316,4.0,7.0,47,0.00,,,0.01,weatherlink.com 1.10,2013-11-03 21:08:00,
2013-11-03 16:23:00,46.2,29.0,30.29,NW,306,3.0,6.0,51,0.00,,,0.01,weatherlink.com 1.10,2013-11-03 21:23:00,
2013-11-03 16:38:00,45.4,29.0,30.29,NW,307,1.0,5.0,53,0.00,,,0.01,weatherlink.com 1.10,2013-11-03 21:38:00,
2013-11-03 16:53:00,44.5,29.0,30.29,WNW,302,2.0,4.0,55,0.00,,,0.01,weatherlink.com 1.10,2013-11-03 21:53:00,
2013-11-03 17:08:00,43.5,29.0,30.30,WNW,301,2.0,4.0,56,0.00,,,0.01,weatherlink.com 1.10,2013-11-03 22:08:00,
2013-11-03 17:23:00,42.5,29.0,30.30,WNW,302,0.0,3.0,59,0.00,,,0.01,weatherlink.com 1.10,2013-11-03 22:23:00,
2013-11-03 17:38:00,41.6,28.0,30.31,WNW,298,2.0,3.0,60,0.00,,,0.01,weatherlink.com 1.10,2013-11-03 22:38:00,
2013-11-03 17:53:00,40.3,28.0,30.32,WNW,293,0.0,1.0,63,0.00,,,0.01,weatherlink.com 1.10,2013-11-03 22:53:00,
2013-11-03 18:08:00,38.7,30.0,30.32,WNW,291,0.0,1.0,70,0.00,,,0.01,weatherlink.com 1.10,2013-11-03 23:08:00,
2013-11-03 18:23:00,37.4,29.0,30.33,NNE,20,0.0,0.0,73,0.00,,,0.01,weatherlink.com 1.10,2013-11-03 23:23:00,
2013-11-03 18:38:00,36.9,29.0,30.33,NW,315,0.0,0.0,74,0.00,,,0.01,weatherlink.com 1.10,2013-11-03 23:38:00,
2013-11-03 18:53:00,35.5,29.0,30.34,West,277,0.0,1.0,76,0.00,,,0.01,weatherlink.com 1.10,2013-11-03 23:53:00,
2013-11-03 19:08:00,35.6,29.0,30.35,NNE,16,0.0,1.0,76,0.00,,,0.01,weatherlink.com 1.10,2013-11-04 00:08:00,
2013-11-03 19:23:00,34.8,28.0,30.36,NNE,27,0.0,1.0,77,0.00,,,0.01,weatherlink.com 1.10,2013-11-04 00:23:00,
2013-11-03 19:38:00,33.6,28.0,30.37,NNE,15,0.0,1.0,80,0.00,,,0.01,weatherlink.com 1.10,2013-11-04 00:38:00,
2013-11-03 19:53:00,33.5,28.0,30.37,NE,36,0.0,2.0,80,0.00,,,0.01,weatherlink.com 1.10,2013-11-04 00:53:00,
2013-11-03 20:08:00,32.7,28.0,30.38,NNW,348,0.0,1.0,81,0.00,,,0.01,weatherlink.com 1.10,2013-11-04 01:08:00,
2013-11-03 20:23:00,33.1,27.0,30.39,NW,305,0.0,1.0,78,0.00,,,0.01,weatherlink.com 1.10,2013-11-04 01:23:00,
2013-11-03 20:38:00,33.0,27.0,30.39,NW,324,0.0,1.0,78,0.00,,,0.01,weatherlink.com 1.10,2013-11-04 01:38:00,
2013-11-03 20:53:00,32.1,27.0,30.39,ENE,72,0.0,1.0,80,0.00,,,0.01,weatherlink.com 1.10,2013-11-04 01:53:00,
2013-11-03 21:08:00,31.8,26.0,30.40,NW,316,0.0,1.0,80,0.00,,,0.01,weatherlink.com 1.10,2013-11-04 02:08:00,
2013-11-03 21:23:00,31.7,26.0,30.41,NNW,342,0.0,1.0,79,0.00,,,0.01,weatherlink.com 1.10,2013-11-04 02:23:00,
2013-11-03 21:38:00,31.8,26.0,30.41,NNW,345,0.0,1.0,79,0.00,,,0.01,weatherlink.com 1.10,2013-11-04 02:38:00,
2013-11-03 21:53:00,30.9,25.0,30.42,NNW,345,0.0,1.0,80,0.00,,,0.01,weatherlink.com 1.10,2013-11-04 02:53:00,
2013-11-03 22:08:00,30.0,25.0,30.43,NNW,344,0.0,0.0,83,0.00,,,0.01,weatherlink.com 1.10,2013-11-04 03:08:00,
2013-11-03 22:23:00,29.0,25.0,30.43,NNW,345,0.0,0.0,84,0.00,,,0.01,weatherlink.com 1.10,2013-11-04 03:23:00,
2013-11-03 22:38:00,29.0,25.0,30.43,NW,321,0.0,0.0,85,0.00,,,0.01,weatherlink.com 1.10,2013-11-04 03:38:00,
2013-11-03 22:53:00,28.1,24.0,30.43,NW,320,0.0,0.0,85,0.00,,,0.01,weatherlink.com 1.10,2013-11-04 03:53:00,
2013-11-03 23:08:00,27.6,24.0,30.43,NW,320,0.0,0.0,86,0.00,,,0.01,weatherlink.com 1.10,2013-11-04 04:08:00,
2013-11-03 23:23:00,27.7,24.0,30.43,North,354,0.0,0.0,87,0.00,,,0.01,weatherlink.com 1.10,2013-11-04 04:23:00,
2013-11-03 23:39:00,27.8,24.0,30.44,North,354,0.0,0.0,87,0.00,,,0.01,weatherlink.com 1.10,2013-11-04 04:39:00,
2013-11-03 23:54:00,27.5,24.0,30.44,North,354,0.0,0.0,87,0.00,,,0.01,weatherlink.com 1.10,2013-11-04 04:54:00,